Time,TemperatureF,DewpointF,PressureIn,WindDirection,WindDirectionDegrees,WindSpeedMPH,WindSpeedGustMPH,Humidity,HourlyPrecipIn,Conditions,Clouds,dailyrainin,SoftwareType,DateUTC
2013-06-13 00:02:00,74.0,70.0,30.00,WNW,301,3.0,32.0,86,0.00,,,0.00,,2013-06-13 05:02:00,
2013-06-13 00:12:00,73.0,69.0,30.00,WNW,284,0.0,32.0,86,0.00,,,0.00,,2013-06-13 05:12:00,
2013-06-13 00:24:00,73.0,69.0,30.00,South,181,0.0,0.0,86,0.00,,,0.00,,2013-06-13 05:24:00,
2013-06-13 00:33:00,73.0,69.0,30.00,SSE,157,0.0,7.0,86,0.00,,,0.00,,2013-06-13 05:33:00,
2013-06-13 00:43:00,72.0,68.0,30.00,West,280,1.0,7.0,86,0.00,,,0.00,,2013-06-13 05:43:00,
2013-06-13 00:53:00,72.0,68.0,30.00,NNW,330,2.0,7.0,86,0.00,,,0.00,,2013-06-13 05:53:00,
2013-06-13 01:02:00,72.0,68.0,30.00,WNW,294,1.0,7.0,86,0.00,,,0.00,,2013-06-13 06:02:00,
2013-06-13 01:11:00,71.0,67.0,30.00,North,350,3.0,8.0,86,0.00,,,0.00,,2013-06-13 06:11:00,
2013-06-13 01:22:00,70.0,66.0,30.00,North,3,2.0,13.0,86,0.00,,,0.00,,2013-06-13 06:22:00,
2013-06-13 01:33:00,69.0,65.0,30.00,NNW,346,3.0,13.0,86,0.04,,,0.04,,2013-06-13 06:33:00,
2013-06-13 01:44:00,69.0,65.0,30.00,North,5,1.0,13.0,86,0.05,,,0.05,,2013-06-13 06:44:00,
2013-06-13 01:52:00,68.0,64.0,30.00,NNW,343,1.0,13.0,86,0.06,,,0.06,,2013-06-13 06:52:00,
2013-06-13 02:01:00,69.0,65.0,30.00,NW,323,0.0,13.0,86,0.06,,,0.06,,2013-06-13 07:01:00,
2013-06-13 02:11:00,68.0,64.0,30.00,NNW,345,5.0,13.0,86,0.06,,,0.06,,2013-06-13 07:11:00,
2013-06-13 02:22:00,68.0,64.0,30.00,NNE,26,5.0,14.0,86,0.07,,,0.07,,2013-06-13 07:22:00,
2013-06-13 02:33:00,67.0,63.0,30.00,North,4,6.0,19.0,86,0.03,,,0.07,,2013-06-13 07:33:00,
2013-06-13 02:42:00,67.0,63.0,30.00,North,4,3.0,19.0,86,0.02,,,0.07,,2013-06-13 07:42:00,
2013-06-13 02:52:00,67.0,63.0,30.00,North,0,7.0,19.0,86,0.01,,,0.07,,2013-06-13 07:52:00,
2013-06-13 03:01:00,67.0,63.0,30.00,North,0,7.0,19.0,86,0.01,,,0.07,,2013-06-13 08:01:00,
2013-06-13 03:11:00,67.0,63.0,30.00,North,9,7.0,19.0,86,0.01,,,0.07,,2013-06-13 08:11:00,
2013-06-13 03:22:00,67.0,63.0,30.00,NNE,23,5.0,19.0,86,0.00,,,0.07,,2013-06-13 08:22:00,
2013-06-13 03:32:00,67.0,63.0,30.00,North,349,8.0,19.0,86,0.00,,,0.07,,2013-06-13 08:32:00,
2013-06-13 03:43:00,67.0,63.0,30.00,NNE,14,6.0,19.0,86,0.00,,,0.07,,2013-06-13 08:43:00,
2013-06-13 03:52:00,66.0,62.0,30.00,NNE,16,5.0,19.0,86,0.00,,,0.07,,2013-06-13 08:52:00,
2013-06-13 04:02:00,66.0,62.0,30.00,North,354,5.0,19.0,86,0.00,,,0.07,,2013-06-13 09:02:00,
2013-06-13 04:11:00,66.0,62.0,30.00,North,2,7.0,19.0,86,0.00,,,0.07,,2013-06-13 09:11:00,
2013-06-13 04:22:00,66.0,62.0,30.00,NNE,13,6.0,19.0,86,0.00,,,0.07,,2013-06-13 09:22:00,
2013-06-13 04:32:00,66.0,62.0,30.00,North,8,7.0,19.0,86,0.00,,,0.07,,2013-06-13 09:32:00,
2013-06-13 04:42:00,65.0,61.0,30.00,NNW,338,5.0,19.0,86,0.00,,,0.07,,2013-06-13 09:42:00,
2013-06-13 04:52:00,65.0,61.0,30.00,North,2,7.0,19.0,86,0.00,,,0.07,,2013-06-13 09:52:00,
2013-06-13 05:01:00,65.0,61.0,30.00,North,351,3.0,19.0,86,0.00,,,0.07,,2013-06-13 10:01:00,
2013-06-13 05:11:00,65.0,61.0,30.00,North,8,3.0,19.0,86,0.00,,,0.07,,2013-06-13 10:11:00,
2013-06-13 05:22:00,64.0,60.0,30.00,North,3,5.0,19.0,86,0.00,,,0.07,,2013-06-13 10:22:00,
2013-06-13 05:33:00,64.0,60.0,30.00,North,351,5.0,19.0,86,0.00,,,0.07,,2013-06-13 10:33:00,
2013-06-13 05:43:00,64.0,60.0,30.00,North,3,8.0,19.0,86,0.00,,,0.07,,2013-06-13 10:43:00,
2013-06-13 05:53:00,64.0,60.0,30.00,North,357,5.0,19.0,86,0.00,,,0.07,,2013-06-13 10:53:00,
2013-06-13 06:02:00,63.0,59.0,30.00,North,3,6.0,19.0,86,0.00,,,0.07,,2013-06-13 11:02:00,
2013-06-13 06:11:00,63.0,59.0,30.00,North,358,5.0,19.0,86,0.00,,,0.07,,2013-06-13 11:11:00,
2013-06-13 06:23:00,63.0,59.0,30.00,North,356,3.0,19.0,86,0.00,,,0.07,,2013-06-13 11:23:00,
2013-06-13 06:32:00,63.0,59.0,30.00,North,1,6.0,19.0,86,0.00,,,0.07,,2013-06-13 11:32:00,
2013-06-13 06:42:00,63.0,59.0,30.00,North,0,5.0,19.0,86,0.00,,,0.07,,2013-06-13 11:42:00,
2013-06-13 06:52:00,63.0,59.0,30.00,North,10,6.0,19.0,86,0.00,,,0.07,,2013-06-13 11:52:00,
2013-06-13 07:01:00,64.0,60.0,30.00,North,355,3.0,19.0,86,0.00,,,0.07,,2013-06-13 12:01:00,
2013-06-13 07:11:00,64.0,60.0,30.00,North,359,7.0,19.0,86,0.00,,,0.07,,2013-06-13 12:11:00,
2013-06-13 07:22:00,64.0,60.0,30.00,North,352,3.0,19.0,86,0.00,,,0.07,,2013-06-13 12:22:00,
2013-06-13 07:34:00,64.0,60.0,30.00,North,5,3.0,19.0,86,0.00,,,0.07,,2013-06-13 12:34:00,
2013-06-13 07:42:00,65.0,61.0,30.00,North,358,6.0,19.0,86,0.00,,,0.07,,2013-06-13 12:42:00,
2013-06-13 07:52:00,65.0,61.0,30.00,North,351,2.0,19.0,86,0.00,,,0.07,,2013-06-13 12:52:00,
2013-06-13 08:01:00,66.0,62.0,30.00,North,6,5.0,19.0,86,0.00,,,0.07,,2013-06-13 13:01:00,
2013-06-13 08:11:00,66.0,62.0,30.00,North,357,2.0,19.0,86,0.00,,,0.07,,2013-06-13 13:11:00,
2013-06-13 08:21:00,67.0,63.0,30.00,North,351,1.0,19.0,86,0.00,,,0.07,,2013-06-13 13:21:00,
2013-06-13 08:32:00,68.0,64.0,30.00,North,356,3.0,32.0,86,0.00,,,0.07,,2013-06-13 13:32:00,
2013-06-13 08:43:00,68.0,64.0,30.00,North,353,1.0,32.0,86,0.00,,,0.07,,2013-06-13 13:43:00,
2013-06-13 11:22:00,75.0,71.0,30.00,NE,49,1.0,32.0,86,0.00,,,0.07,,2013-06-13 16:22:00,
2013-06-13 21:52:00,68.0,64.0,30.00,NNW,346,0.0,32.0,86,0.00,,,0.07,,2013-06-14 02:52:00,
2013-06-13 22:12:00,67.0,63.0,30.00,NNW,346,0.0,32.0,86,0.00,,,0.07,,2013-06-14 03:12:00,
2013-06-13 22:22:00,67.0,63.0,30.00,NNW,346,0.0,32.0,86,0.00,,,0.07,,2013-06-14 03:22:00,
2013-06-13 22:34:00,67.0,63.0,30.00,NNW,346,0.0,32.0,86,0.00,,,0.07,,2013-06-14 03:34:00,
2013-06-13 22:43:00,67.0,63.0,30.00,NNW,346,0.0,32.0,86,0.00,,,0.07,,2013-06-14 03:43:00,
2013-06-13 22:52:00,66.0,62.0,30.00,North,357,0.0,32.0,86,0.00,,,0.07,,2013-06-14 03:52:00,
2013-06-13 23:01:00,66.0,62.0,30.00,WNW,294,0.0,32.0,86,0.00,,,0.07,,2013-06-14 04:01:00,
2013-06-13 23:12:00,66.0,62.0,30.00,WNW,294,0.0,32.0,86,0.00,,,0.07,,2013-06-14 04:12:00,
2013-06-13 23:22:00,66.0,62.0,30.00,NNE,31,0.0,32.0,86,0.00,,,0.07,,2013-06-14 04:22:00,
2013-06-13 23:33:00,66.0,62.0,30.00,NNE,31,0.0,32.0,86,0.00,,,0.07,,2013-06-14 04:33:00,
2013-06-13 23:43:00,67.0,63.0,30.00,NNE,31,0.0,32.0,86,0.00,,,0.07,,2013-06-14 04:43:00,
2013-06-13 23:53:00,68.0,64.0,30.00,NNE,31,0.0,32.0,86,0.00,,,0.07,,2013-06-14 04:53:00,